Regional Weather Roundup
Issued by NWS State College, PA

Home | Current Version | Previous Version | Graphics & Text | Print | Product List | Glossary On
Versions: 1 2 3 4 5 6 7 8 9 10 11 12 13 14 15 16 17 18 19 20 21 22 23 24 25 26 27 28 29 30 31 32 33 34 35 36 37 38 39 40 41 42 43 44 45 46 47 48 49 50
000
ASUS41 KCTP 262103
RWRCTP

REGIONAL WEATHER ROUNDUP
NATIONAL WEATHER SERVICE STATE COLLEGE PA
400 PM EST SUN FEB 26 2017

Note: "fair" indicates few or no clouds below 12,000 feet with no
significant weather and/or obstructions to visibility.

* = STATION THAT DOES NOT REPORT PRECIPITATION /E.G. RAIN...SNOW...ETC/
    THUNDER OR FOG.

PAZ002>004-007>009-013>016-020>023-029>032-262200-
WESTERN PENNSYLVANIA

CITY           SKY/WX    TMP DP  RH WIND       PRES   REMARKS
ERIE           SUNNY     37  20  50 S16       30.08F
MEADVILLE      SUNNY     33  17  51 S10       30.06F
FRANKLIN*      SUNNY     34  16  47 SW9G17    30.10F
NEW CASTLE     FAIR      38  17  42 W9        30.11F
BEAVER COUNTY  NOT AVBL
BUTLER*        SUNNY     37  16  41 W5        30.12F
PITTSBURGH INT MOSUNNY   39  16  39 SW10      30.12F
PITTSBURGH     SUNNY     39  14  36 W9        30.12S
INDIANA*       SUNNY     36  18  48 W12G20    30.14S
LATROBE        MOSUNNY   37  16  41 W12G17    30.14F
WASHINGTON CO* SUNNY     39  14  35 SW9G17    30.15S
$$

PAZ004>006-010>012-017>019-024>028-033>037-041-042-045-046-049>053-262200-
CENTRAL PENNSYLVANIA

CITY           SKY/WX    TMP DP  RH WIND       PRES   REMARKS
BRADFORD       MOSUNNY   29  16  58 W8        30.04R
DUBOIS         MOSUNNY   32  15  49 W14       30.08R
CLEARFIELD       N/A    N/A N/A N/A MISG      30.10S
JOHNSTOWN      SUNNY     32  17  54 W9G21     30.06S
ALTOONA        MOSUNNY   36  18  48 W13       30.12R
STATE COLLEGE  SUNNY     36  14  41 W13G22    30.11R
WILLIAMSPORT   CLOUDY    39  15  37 W15G23    30.11R
SELINSGROVE    SUNNY     37  17  44 NW10G22   30.14R
FT INDIANTOWN  MOSUNNY   40  14  34 W14G23    30.12R
CAPITAL CITY   PTSUNNY   42  16  34 W16G28    30.15R
HARRISBURG     MOSUNNY   41  20  43 NW15G25   30.14R
YORK           SUNNY     41  20  43 W10G20    30.14R
$$

PAZ038>040-043-044-047-048-054-055-060>062-067>071-262200-
EASTERN PENNSYLVANIA

CITY           SKY/WX    TMP DP  RH WIND       PRES   REMARKS
SCRANTON       CLOUDY    36  17  46 NW10G18   30.06R
MOUNT POCONO   CLOUDY    30  15  53 NW10      30.00R
ALLENTOWN      SUNNY     40  16  37 NW17G24   30.11R
QUAKERTOWN*    PTCLDY    39  18  41 NW12      30.10R
READING        CLOUDY    41  19  41 W13       30.11R
LANCASTER      MOSUNNY   39  20  46 W15       30.13R
COATESVILLE    CLEAR     37  18  44 W15G21    30.13R
POTTSTOWN      MOSUNNY   39  17  41 W9G20     30.13R
BLUE BELL      MOSUNNY   39  19  45 W10       30.10R
DOYLESTOWN     SUNNY     39  18  42 W13       30.09R
WILLOW GROVE   NOT AVBL
NORTH PHILA    SUNNY     43  17  35 W12G21    30.12R
PHILADELPHIA   MOSUNNY   43  15  32 W15G23    30.13R
$$




USA.gov is the U.S. government's official web portal to all federal, state and local government web resources and services.